STARLINK-1355, 45563

Orbit data source: Space-Track

STARLINK-1355, 45563 is a payload satellite owned by SpaceX/Seattle (US) in LEO that was launched on Wed, 22 Apr 2020 UTC via an FALCON 9 launch vehicle from the Air Force Eastern Test Range (AFETR). Payload-class satellites include a variety of spacecraft equipped with specific instruments for various scientific and technological missions. These include communications satellites like Starlink; space stations such as the ISS; scientific satellites like the Hubble; Earth observation satellites from companies like Planet Labs, Umbra, and HawkEye 360; GPS; miniature CubeSats for education and research; and military/defense satellites.

Loading next visibility...
Identifier
45563, 2020-025AJ
Orbit
LEO
Country
Flag of USUS
Related business
Manufacturer
SpaceX/Seattle
Mission
Partially operational Commercial Communications
Bus & Motor
STARLINK, Unknown motor
Mass
260 kg wet, ~248 kg dry
Launch date (UTC)
2020-04-22 (5 years ago)
Launch vehicle
FALCON 9
Launch site
Air Force Eastern Test Range (AFETR)
Object type
Payload
Rocket body
Debris
Shape & HBR
Box + 1 Pan, 4.4 m
Radar Cross Section
13.562 m², Large (>1 m²)

Expand to show TLE details & history
Last TLE update: 8 hours ago

TLE from 8 hours ago
0 STARLINK-1355
1 45563U 20025AJ  25242.25001157  .00272969  39176-4  80243-3 0  9993
2 45563  53.0350 122.0655 0002063 207.1274 306.3093 15.92247613  6073
Epoch: 2025-08-30T06:00Z
TLE epoch observation values (Epoch: 2025-08-30T06:00:00.999Z)
Latitude
20.99867°
Longitude
-143.31843°
Altitude
295.733 km
Speed
7.734 km/s
True Right ascension
19h 01m 29s
True Declination
20° 52' 33"
Sunlit
Object was in full shadow at epoch
Visualization orbit readout
Latitude
Unknown
Longitude
Unknown
Altitude
Unknown
Speed
Unknown
Apparent Right ascension
Unknown
Apparent Declination
Unknown
Sunlit
N/A
Visualization observer readout
Local Sidereal Time
05:10:02
Azimuth
Unknown
Elevation
Unknown
Doppler factor
Unknown
Orbital elements
Apogee altitude
297.655 km
Perigee altitude
294.902 km
Semi-major axis
6,674.416 km
Eccentricity
0.00021
Inclination
53.035°
RAAN
122.0655°
Arg. of periapsis
207.1274°
True anomaly
306.29025°
Mean anomaly
306.3093°
Eccentric anomaly
306.29977°
Mean motion
3.98037 °/min
Orbital period
90.44 mins
BSTAR
0.00080243
Loading maneuver chart data...
Computing Atmospheric mass density...
Loading historical data...
Loading historical data...
Loading historical data...
Loading historical data...
Loading historical data...
Loading historical data...
Loading historical data...

Documentation

Showing up to 5 results
|